Weather History for Zanesville, OH

Change the Weather History Date:

Monday, January 7, 2013

  Actual Average Record
Temperature  
Mean Temperature 29 °F 29 °F  
Max Temperature 34 °F 37 °F 69 °F (2008)
Min Temperature 23 °F 21 °F -8 °F (2014)
Degree Days  
Heating Degree Days 36 36  
Month to date heating degree days 274 252  
Since 1 July heating degree days 2380 2397  
Cooling Degree Days 0 0  
Month to date cooling degree days 0 0  
Year to date cooling degree days 0 0  
Moisture  
Dew Point 23 °F    
Average Humidity 76    
Maximum Humidity 88    
Minimum Humidity 64    
Precipitation  
Precipitation 0.00 in 0.09 in 2.10 in (1998)
Month to date precipitation 0.09 0.63  
Year to date precipitation 0.09 0.63  
Sea Level Pressure  
Sea Level Pressure 30.39 in    
Wind  
Wind Speed 5 mph (SSW)    
Max Wind Speed 12 mph    
Max Gust Speed 15 mph    
Visibility 5 miles    
Events      
T = Trace of Precipitation, MM = Missing Value Source: NWS Daily Summary

Daily Weather History Graph

Daily Weather History Graph

Search for Another Location

Airport:

Trip Planner

Search our weather history database for the weather conditions in past years. The results will help you decide how hot, cold, wet, or windy it might be!

Date:

Astronomy

Jan. 07, 2013 Rise Set
Actual Time 7:49 AM EST 5:18 PM EST
Civil Twilight 7:19 AM EST 5:49 PM EST
Nautical Twilight 6:45 AM EST 6:22 PM EST
Astronomical Twilight 6:12 AM EST 6:55 PM EST
Moon 3:11 AM EST (1/7) 1:28 PM EST (1/7)
Length of Visible Light 10h 29m
Length of Day
9h 29m
Waning Crescent, 23% of the Moon is Illuminated
Jan 7
Waning Crescent
Jan 11
New
Jan 18
First Quarter
Jan 26
Full
Feb 3
Last Quarter

Hourly Weather History & Observations

Time (EST) Temp. Windchill Dew Point Humidity Pressure Visibility Wind Dir Wind Speed Gust Speed Precip Events Conditions
12:53 AM 28.0 °F 21.7 °F 23.0 °F 81% 30.33 in 5.0 mi WSW 5.8 mph - N/A   Haze
1:53 AM 28.0 °F 21.7 °F 23.0 °F 81% 30.35 in 4.0 mi West 5.8 mph - N/A   Haze
2:53 AM 28.0 °F 21.7 °F 23.0 °F 81% 30.37 in 4.0 mi West 5.8 mph - N/A   Haze
3:35 AM 28.4 °F 24.6 °F 23.0 °F 80% 30.35 in 4.0 mi SW 3.5 mph - N/A   Haze
3:53 AM 28.0 °F - 23.0 °F 81% 30.38 in 4.0 mi Calm Calm - N/A   Haze
4:00 AM 28.4 °F 24.6 °F 23.0 °F 80% 30.35 in 4.0 mi WSW 3.5 mph - N/A   Haze
4:51 AM 28.4 °F 22.2 °F 23.0 °F 80% 30.35 in 4.0 mi SW 5.8 mph - N/A   Haze
4:53 AM 28.0 °F 22.8 °F 23.0 °F 81% 30.38 in 4.0 mi SW 4.6 mph - N/A   Haze
5:05 AM 28.4 °F 24.6 °F 23.0 °F 80% 30.36 in 4.0 mi WSW 3.5 mph - N/A   Haze
5:53 AM 28.0 °F 22.8 °F 24.1 °F 85% 30.40 in 4.0 mi WSW 4.6 mph - N/A   Overcast
6:53 AM 28.0 °F - 24.1 °F 85% 30.41 in 4.0 mi Calm Calm - N/A   Overcast
7:53 AM 28.9 °F - 24.1 °F 82% 30.45 in 4.0 mi Calm Calm - N/A   Haze
8:15 AM 28.4 °F - 24.8 °F 86% 30.44 in 2.5 mi Calm Calm - N/A   Overcast
8:53 AM 28.9 °F 22.8 °F 24.1 °F 82% 30.47 in 2.5 mi SSW 5.8 mph - N/A   Haze
9:11 AM 28.4 °F 24.6 °F 24.8 °F 86% 30.45 in 3.0 mi SSW 3.5 mph - N/A   Haze
9:53 AM 30.0 °F 25.2 °F 25.0 °F 82% 30.50 in 3.0 mi WSW 4.6 mph - N/A   Haze
10:53 AM 30.9 °F 25.2 °F 25.0 °F 79% 30.50 in 4.0 mi SSW 5.8 mph - N/A   Haze
11:53 AM 32.0 °F 28.7 °F 25.0 °F 75% 30.47 in 5.0 mi South 3.5 mph - N/A   Haze
12:53 PM 33.1 °F 26.9 °F 23.0 °F 66% 30.43 in 9.0 mi South 6.9 mph - N/A   Overcast
2:14 PM 33.8 °F 28.6 °F 23.0 °F 65% 30.38 in 10.0 mi Variable 5.8 mph - N/A   Partly Cloudy
2:53 PM 34.0 °F 28.0 °F 23.0 °F 64% 30.40 in 10.0 mi South 6.9 mph - N/A   Clear
3:53 PM 34.0 °F 28.0 °F 24.1 °F 67% 30.39 in 10.0 mi SE 6.9 mph - N/A   Clear
4:53 PM 33.1 °F 26.1 °F 24.1 °F 70% 30.39 in 9.0 mi SSE 8.1 mph - N/A   Clear
6:53 PM 28.0 °F 21.7 °F 21.9 °F 78% 30.38 in 8.0 mi SSE 5.8 mph - N/A   Clear
7:53 PM 28.0 °F 22.8 °F 21.9 °F 78% 30.35 in 7.0 mi SE 4.6 mph - N/A   Clear
8:53 PM 27.0 °F 21.6 °F 21.0 °F 78% 30.34 in 7.0 mi SSE 4.6 mph - N/A   Clear
9:53 PM 26.1 °F 19.4 °F 21.0 °F 81% 30.32 in 6.0 mi SE 5.8 mph - N/A   Haze
10:53 PM 24.1 °F 17.0 °F 21.0 °F 88% 30.29 in 6.0 mi SE 5.8 mph - N/A   Clear
11:53 PM 25.0 °F - 21.0 °F 85% 30.30 in 6.0 mi Calm Calm - N/A   Clear